[Iaude] MPEC J272: 2024 JU14 [a=2.27,e=0.57,i=17.1,H=25.6]
    mpec at cfa.harvard.edu 
    mpec at cfa.harvard.edu
       
    Sat May 11 21:28:12 EDT 2024
    
    
  
M.P.E.C. 2024-J272                                 Issued 2024 May 12, 01:26 UT
     The Minor Planet Electronic Circulars contain information on unusual
         minor planets, routine data on comets and natural satellites,
         and occasional editorial announcements.  They are published
    on behalf of Division F of the International Astronomical Union by the
          Minor Planet Center, Smithsonian Astrophysical Observatory,
                          Cambridge, MA 02138, U.S.A.
			  
             Prepared using the Tamkin Foundation Computer Network
                              MPC at CFA.HARVARD.EDU
            URL https://www.minorplanetcenter.net/    ISSN 1523-6714
                                   2024 JU14                                    
Observations:
     K24J14U*KC2024 05 10.79111 13 01 13.60 +07 24 29.7          19.0 GXEJ272L51
     K24J14U KC2024 05 10.79276 13 01 17.96 +07 25 04.8          19.2 GXEJ272L51
     K24J14U KC2024 05 10.79429 13 01 21.95 +07 25 36.4          19.6 GXEJ272L51
     K24J14U KC2024 05 10.82043 13 02 30.70 +07 34 36.1          19.5 GXEJ272L51
     K24J14U KC2024 05 10.82270 13 02 36.55 +07 35 22.6          19.5 GXEJ272L51
     K24J14U KC2024 05 10.82466 13 02 41.65 +07 36 04.3          19.1 GXEJ272L51
     K24J14U KB2024 05 10.86523413 04 35.15 +07 49 54.4          19.9 GXEJ272I93
     K24J14U  C2024 05 10.86911 13 04 43.95 +07 51 15.9          20.3 RXEJ272511
     K24J14U KB2024 05 10.86933213 04 45.80 +07 51 17.8          19.4 GXEJ272I93
     K24J14U  C2024 05 10.86949 13 04 44.93 +07 51 23.7          20.1 RXEJ272511
     K24J14U  C2024 05 10.86987 13 04 45.93 +07 51 31.3          20.2 RXEJ272511
     K24J14U  C2024 05 10.87025 13 04 46.93 +07 51 39.2          20.3 RXEJ272511
     K24J14U  C2024 05 10.87063 13 04 47.89 +07 51 46.6          19.9 RXEJ272511
     K24J14U KB2024 05 10.87342113 04 56.45 +07 52 41.2          19.9 GXEJ272I93
     K24J14U KB2024 05 10.87752013 05 07.11 +07 54 04.8          19.8 GXEJ272I93
     K24J14U KB2024 05 10.87806 13 05 07.25 +07 54 18.5          19.4 GXEJ272K19
     K24J14U KB2024 05 10.88125 13 05 11.17 +07 55 15.7          19.7 GXEJ272M45
     K24J14U KB2024 05 10.88130 13 05 15.62 +07 55 24.1          19.2 GXEJ272K19
     K24J14U KB2024 05 10.88503 13 05 21.01 +07 56 32.0          19.6 GXEJ272M45
     K24J14U KB2024 05 10.88785 13 05 28.36 +07 57 29.1          19.3 GXEJ272M45
     K24J14U KB2024 05 10.88808 13 05 31.23 +07 57 26.1          19.3 GXEJ272G00
     K24J14U KB2024 05 10.88991 13 05 35.99 +07 58 02.4          20.7 GXEJ272G00
     K24J14U KB2024 05 10.89175 13 05 40.85 +07 58 40.4          19.3 GXEJ272G00
     K24J14U KB2024 05 10.92845 13 07 19.54 +08 11 30.4          19.0 GXEJ272Z41
     K24J14U KC2024 05 10.93250913 07 29.47 +08 12 39.8          18.9 GXEJ272958
     K24J14U KB2024 05 10.93265 13 07 30.32 +08 12 54.2          19.1 GXEJ272Z41
     K24J14U KB2024 05 10.93688 13 07 41.18 +08 14 18.4          18.9 GXEJ272Z41
     K24J14U KC2024 05 10.93825813 07 44.27 +08 14 35.0          19.3 GXEJ272958
     K24J14U KC2024 05 10.94396613 07 59.00 +08 16 28.0          19.6 GXEJ272958
     K24J14U KC2024 05 10.96924 13 09 01.58 +08 24 47.3                VEJ272104
     K24J14U KC2024 05 10.97963 13 09 28.31 +08 28 13.0          19.4 GVEJ272104
     K24J14U KC2024 05 10.98672 13 09 46.34 +08 30 33.1          19.4 GXEJ272K83
     K24J14U 1C2024 05 10.99518 13 10 09.04 +08 32 54.7          20.9 VXEJ272033
     K24J14U 1C2024 05 10.99555 13 10 09.99 +08 33 02.1          20.8 VXEJ272033
     K24J14U 1C2024 05 10.99592 13 10 10.95 +08 33 09.5          20.1 VXEJ272033
     K24J14U KC2024 05 10.99810 13 10 15.54 +08 34 16.2          19.6 GXEJ272K83
     K24J14U KC2024 05 11.00955 13 10 44.89 +08 38 00.6          19.2 GXEJ272K83
     K24J14U KC2024 05 11.03012 13 11 39.151+08 45 01.15         19.5 GVEJ272J57
     K24J14U KC2024 05 11.03922 13 12 02.330+08 47 57.84         19.4 GVEJ272J57
     K24J14U KC2024 05 11.12429013 15 55.05 +09 15 31.2          19.7 GVEJ272H21
     K24J14U KC2024 05 11.12587213 15 58.99 +09 16 01.6          19.8 GVEJ272H21
     K24J14U KC2024 05 11.12745413 16 02.93 +09 16 32.0          19.7 GVEJ272H21
     K24J14U KC2024 05 11.12903513 16 06.87 +09 17 02.0          19.8 GVEJ272H21
     K24J14U KC2024 05 11.13061713 16 10.80 +09 17 32.2          19.9 GVEJ272H21
     K24J14U KB2024 05 11.22411 13 20 03.226+09 46 56.53         19.3 RZEJ272H36
     K24J14U KB2024 05 11.23046 13 20 18.785+09 48 53.39         19.4 RZEJ272H36
     K24J14U KB2024 05 11.23634 13 20 33.170+09 50 43.01         19.6 RZEJ272H36
     K24J14U mC2024 05 11.40264113 27 18.227+10 41 03.95         19.54GVEJ272I52
     K24J14U mC2024 05 11.40401913 27 21.557+10 41 27.85         19.63GVEJ272I52
     K24J14U mC2024 05 11.40559313 27 25.348+10 41 55.54         19.87GVEJ272I52
     K24J14U 1C2024 05 11.85436 13 45 14.95 +12 44 57.5          20.0 VXEJ272033
     K24J14U 1C2024 05 11.85480 13 45 15.91 +12 45 04.4          20.4 VXEJ272033
     K24J14U 1C2024 05 11.85522 13 45 16.85 +12 45 11.1          20.2 VXEJ272033
     K24J14U KC2024 05 11.85693613 45 20.50 +12 45 56.7          20.1 GVEJ272L01
     K24J14U KC2024 05 11.85841613 45 23.70 +12 46 19.7          20.2 GVEJ272L01
     K24J14U KC2024 05 11.85989813 45 26.95 +12 46 42.3          20.1 GVEJ272L01
     K24J14U KC2024 05 11.86137913 45 30.19 +12 47 05.2          20.1 GVEJ272L01
     K24J14U pC2024 05 11.86286213 45 33.42 +12 47 28.6          20.4 GVEJ272L01
     K24J14U KC2024 05 11.88483213 46 20.99 +12 52 48.6          19.9 GVEJ272K62
     K24J14U KC2024 05 11.88613613 46 23.77 +12 53 08.2          19.8 GVEJ272K62
     K24J14U KC2024 05 11.88744413 46 26.64 +12 53 27.6          19.8 GVEJ272K62
     K24J14U KC2024 05 11.88875113 46 29.44 +12 53 48.6          19.8 GVEJ272K62
     K24J14U KC2024 05 11.89140813 46 35.23 +12 54 29.3          19.8 GVEJ272K62
     K24J14U KB2024 05 12.00745513 50 55.615+13 27 54.32         19.9 VZEJ272Y05
     K24J14U KB2024 05 12.01281713 51 06.799+13 29 13.31         20.0 VZEJ272Y05
     K24J14U KB2024 05 12.01810513 51 17.834+13 30 30.42         20.1 VZEJ272Y05
Observer details:
033 Karl Schwarzschild Observatory, Tautenburg.  Observers S. Melnikov, C.
    Hogner, F. Ludwig, M. Hartmann, B. Stecklum.  Measurer B. Stecklum.
    1.34-m f/3 Schmidt + CCD.
104 San Marcello Pistoiese.  Observers P. Bacci, M. Maestripieri.  Measurer P.
    Bacci.  0.60-m f/4 reflector + CCD.
511 Haute Provence.  Observers W. Thuillot, M. Saillenfest.  Measurers M.
    Saillenfest, S. Bouquillon, F. Taris, T. Carlucci, C. Barache.  1.20-m f/6
    reflector + CCD.
958 Observatoire de Dax.  Observers P. Dupouy, J. B. de Vanssay.  Measurer P.
    Dupouy.  0.43-m f/2.7 Reflector + CCD.
G00 AZM Martinsberg, Oed.  Observers M. Jaeger, E. Prosperi.  Measurer M.
    Jaeger.  0.40-m f/3.2 reflector + CMO.
H21 Astronomical Research Observatory, Westfield.  Observer R. Holmes.
    Measurers T. Linder, R. Holmes, L. Horn.  0.76-m f/3.0 astrograph + CCD.
H36 Sandlot Observatory, Scranton.  Observer G. Hug.  0.56-m f/4.8 reflector +
    CMO.
I52 Steward Observatory, Mt. Lemmon Station.  Observer T. Beuden.  Measurers
    T. Beuden, V. F. Carvajal, D. Fay, J. B. Fazekas, D. C. Fuls, A. R. Gibbs,
    A. D. Grauer, H. Groeller, J. K. Hogan, R. A. Kowalski, S. M. Larson, G.
    J. Leonard, D. Rankin, R. L. Seaman, F. C. Shelly, K. W. Wierzchos.  1.0-m
    prime focus + CCD.
I93 St Pardon de Conques.  Observer F. Losse.  0.40-m f/3.7 reflector + CMO.
J57 Centro Astronomico Alto Turia, Valencia.  Observers A. Fornas, V. Mas.
    Measurers E. Arce, R. Barbera.  0.40-m f/5.0 reflector + CCD.
K19 PASTIS Observatory, Banon.  Observer C. Demeautis.  0.28-m f/2.2 reflector
    + CMO.
K62 Teplice Observatory.  Observer Z. Moravec.  0.60-m f/3.3 reflector + CMOS.
K83 Beppe Forti Astronomical Observatory, Montelupo.  Observers M. Tombelli,
    M. Iozzi, F. Cheli, T. Bitossi, M. Lombardo, L. Grazzini.  Measurers M.
    Tombelli, F. Bernardi, A. Squilloni, F. Cheli.  0.40-m f/8 Ritchey-
    Chretien + CCD.
L01 Visnjan Observatory, Tican.  Observers K. Korlevic, G. Kervina.  Measurer
    K. Korlevic.  1.0-m f/2.9 reflector + CCD.
L51 MARGO, Nauchnyi.  Observer G. Borisov.  0.50-m f/1.9 reflector + CCD.
M45 Starhopper Observatory, Sfantu Gheorghe.  Observer F. Ursache.  0.41-m
    f/7.5 reflector + CMO.
Y05 SONEAR Wykrota-CEAMIG, Serra da Piedade.  Observers C. Jacques, A.
    Caetano, E. Pimentel.  Measurer C. Jacques.  0.45-m f/2.9 reflector + CMO.
Z41 Irydeo Observatory, Camarma de Esteruelas.  Observer F. Calvo.  0.43-m
    f/6.8 reflector + CMO.
Orbital elements:
2024 JU14                                                Earth MOID = 0.0181 AU
Epoch 2024 Mar. 31.0 TT = JDT 2460400.5                 MPC                     
M 355.46234              (2000.0)            P               Q                  
n   0.28875130     Peri.  330.73223     -0.93215282     +0.28961734             
a   2.2670099      Node   227.81189     -0.24800590     -0.94797315             
e   0.5664935      Incl.   17.05291     -0.26378816     -0.13216926             
P   3.41           H   25.67          G   0.15           U   7                  
Residuals in seconds of arc
240510 L51  0.5-  0.6-    240510 G00  0.7+  0.2+    240511 H36  0.1+  0.1+
240510 L51  0.3-  0.2+    240510 Z41  0.3-  0.8+    240511 H36  0.2+  0.8-
240510 L51  0.8-  0.1+    240510 958  0.7-  0.8+    240511 H36  0.2+  0.0
240510 L51  1.1+  0.5-    240510 Z41  0.6-  0.4+    240511 I52  0.3-  0.1+
240510 L51  0.3-  0.7-    240510 Z41  0.7-  0.2-    240511 I52  0.1-  0.0
240510 L51  0.8-  0.7+    240510 958  0.7-  0.9+    240511 I52  0.1-  0.1+
240510 I93  0.4-  0.0     240510 958  0.1+  0.3-    240511 033  0.2+  0.0
mailing list